Вернуться в каталог

NOAA 16 DEB

АктивенSSO
NORAD 42425·DEBRIS·🇺🇸 United States

Запущен Sep 21, 2000 с Vandenberg Space Force Base

Loading…

Ближайшие Пролёты (ближайшие 24 часа)

TLE

СвежийSource: Space-Track

Эпоха: Sep 12, 2026, 07:55 UTC

1 42425U 00055TV  26255.33040066  .00001605  00000-0  77933-3 0  9993
2 42425  98.6959 291.0125 0022551 319.8064  40.1443 14.19594359519103

Отслеживайте NOAA 16 DEB в реальном времени с AllMySat

Download on the App Store